[[{"header":{"parameterUnit":"m.s-1","parameterCategory":1,"la1":30.2991,"la2":30.254,"lo1":-89.0895,"lo2":-89.0444,"dy":0.0017,"dx":0.0017,"nx":28,"ny":28,"refTime":"2025-06-13T03:00:00:Z","depth":0,"parameterNumber":2,"parameterNumberName":"U-component_of_WINDS"},"data":[0,0,0,0,0,0,0,0,0,0,0,0,0,0,0,0,0,0,0,0,0,0,0,0,0,0,0,0,0,0,0,0,0,0,0,0,0,0,0,0,0,0,0,0,0,0,0,0,0,0,0,0,0,0,0,0,0,0,0.1374,0.1375,0,0.1474,0.1475,0.1476,0.1548,0.1548,0.1549,0.155,0.1653,0.1655,0.1657,0,0,0,0,0,0,0,0,0,0,0,0,0,0.1244,0.1246,0.1374,0.1375,0.1376,0.1474,0.1475,0.1476,0.1548,0.1548,0.1549,0.155,0.1652,0.1654,0.1657,0,0,0,0,0,0,0,0,0,0,0,0,0,0.1318,0.1247,0.1373,0.1423,0.1429,0.1473,0.1475,0.1477,0.1548,0.1548,0.1549,0.155,0.1651,0.1654,0.1657,0.166,0,0,0.1668,0.1669,0,0,0,0,0,0,0,0,0.1314,0.1323,0.1415,0.142,0.1426,0.1499,0.1467,0.1538,0.1547,0.1503,0.155,0.1551,0.1601,0.1608,0.1625,0.1665,0.167,0.1668,0.167,0.1671,0.1672,0,0,0,0,0,0,0,0.1309,0.1319,0.1413,0.1416,0.1423,0.1441,0.1452,0.1481,0.1546,0.1507,0.1512,0.1523,0.1604,0.1622,0.1628,0.1671,0.1668,0.1671,0.1673,0.1674,0.1718,0.1718,0,0,0,0,0,0,0.1296,0.1314,0.141,0.1416,0.1371,0.1443,0.1455,0.1475,0.1545,0.1557,0.1522,0.1526,0.1616,0.1624,0.1632,0.1641,0.1671,0.1674,0.1676,0.1719,0.1718,0.1717,0,0,0,0,0,0,0.1293,0.1303,0.1406,0.1367,0.1381,0.1444,0.1465,0.1476,0.1494,0.1557,0.1569,0.1528,0.1617,0.1627,0.1653,0.1645,0.1676,0.1679,0.172,0.1719,0.1718,0.1657,0,0,0,0,0,0,0.1289,0.1302,0.1304,0.1366,0.1383,0.1425,0.1465,0.1478,0.15,0.1506,0.1566,0.1577,0.1618,0.1647,0.1656,0.165,0.1681,0.1721,0.172,0.1718,0.166,0.1654,0.1648,0,0,0,0,0,0.1284,0.1283,0.1303,0.1315,0.1386,0.1424,0.1434,0.1481,0.1499,0.1501,0.1541,0.1575,0.1644,0.1649,0.166,0.1655,0.1722,0.172,0.1718,0.1662,0.1655,0.1648,0,0,0,0,0,0,0.1218,0.1292,0.1316,0.1335,0.1373,0.1436,0.1441,0.1472,0.1506,0.151,0.1567,0.1581,0.16,0.163,0.1634,0.1661,0.1687,0.1687,0.1641,0.1634,0.1629,0.1622,0.1684,0,0,0,0,0,0.1205,0.123,0.1293,0.1304,0.1322,0.1377,0.1396,0.1429,0.1471,0.1487,0.153,0.1569,0.1599,0.1618,0.165,0.1664,0.1678,0.1665,0.166,0.1655,0.1654,0.1664,0.1659,0.1711,0.1711,0.1711,0,0,0.118,0.1224,0.1236,0.1292,0.1325,0.1349,0.1391,0.1415,0.1433,0.1491,0.1518,0.155,0.1597,0.1617,0.1628,0.1642,0.1643,0.1652,0.1648,0.1651,0.1662,0.1657,0.1652,0.171,0.171,0.1711,0,0,0.1147,0.1182,0.1195,0.1227,0.1277,0.1314,0.1317,0.1376,0.14,0.1427,0.1471,0.1494,0.1545,0.1577,0.16,0.1578,0.1611,0.1587,0.1557,0.1566,0.1562,0.1559,0.1551,0.1548,0.1586,0.1586,0.1586,0,0.1109,0.1148,0.1197,0.1219,0.1242,0.1295,0.1309,0.1338,0.1395,0.141,0.1426,0.1491,0.1527,0.1555,0.1549,0.1566,0.1572,0.1581,0.1559,0.1556,0.1553,0.1547,0.1544,0.1583,0.1583,0.1584,0.1584,0,0.1099,0.1125,0.1129,0.1183,0.1207,0.1224,0.1277,0.1295,0.1326,0.1361,0.1388,0.1433,0.1475,0.1484,0.1514,0.1516,0.1523,0.1548,0.1575,0.1544,0.1539,0.1537,0.1578,0.1579,0.158,0.1581,0,0,0.1028,0.1109,0.111,0.1135,0.1194,0.1215,0.1234,0.1274,0.1289,0.1327,0.1345,0.1386,0.1409,0.1435,0.147,0.1477,0.1457,0.1501,0.1503,0.1492,0.1463,0.1444,0.1441,0.1479,0.1478,0.1478,0.1459,0,0.1004,0.1042,0.1087,0.111,0.1135,0.1185,0.1202,0.1239,0.1273,0.1299,0.1336,0.1365,0.1392,0.1408,0.1418,0.1458,0.1452,0.146,0.1496,0.1497,0.1484,0.1438,0.1419,0.1399,0.1457,0.1457,0.1457,0,0.0982,0.1017,0.1041,0.1098,0.111,0.1124,0.1165,0.1189,0.1232,0.1256,0.1285,0.1321,0.1345,0.1368,0.1401,0.1405,0.1422,0.1444,0.1444,0.145,0.1476,0.1443,0.1393,0.139,0.1454,0.1454,0.1454,0,0.0928,0.0981,0.1003,0.1023,0.1089,0.1098,0.1126,0.117,0.1192,0.1227,0.1242,0.1279,0.13,0.1328,0.1374,0.1387,0.1402,0.1429,0.1422,0.1421,0.1424,0.1423,0.1377,0.1434,0.1434,0.1434,0.1434,0,0.0897,0.091,0.098,0.0993,0.101,0.1061,0.1076,0.1109,0.1148,0.1168,0.1214,0.1232,0.1291,0.1317,0.1352,0.1374,0.1383,0.1403,0.1413,0.1399,0.1397,0.1413,0.1415,0.1433,0.1433,0.1433,0.1433,0,0.084,0.0887,0.0914,0.0974,0.099,0.0999,0.1051,0.1066,0.1102,0.1127,0.1136,0.1192,0.1224,0.1272,0.1319,0.1343,0.1359,0.1374,0.1345,0.1351,0.1341,0.1342,0.1304,0.1301,0.1359,0.1358,0.1357,0,0.0818,0.0829,0.0891,0.0908,0.0934,0.0961,0.0983,0.1034,0.1055,0.1105,0.1114,0.115,0.1181,0.123,0.1275,0.1311,0.1328,0.1312,0.1334,0.132,0.1328,0.1327,0.1329,0.1307,0.1306,0.1305,0.1305,0,0.0773,0.0796,0.0826,0.0864,0.0889,0.0921,0.0956,0.0967,0.1026,0.1047,0.1081,0.1105,0.1152,0.1187,0.1229,0.1258,0.1291,0.1297,0.1298,0.1285,0.1268,0.1278,0.1332,0.1298,0.1299,0.1299,0.13,0.13,0.0734,0.0746,0.0791,0.0823,0.0855,0.0886,0.0903,0.0941,0.0969,0.1012,0.104,0.1072,0.1115,0.1175,0.1202,0.1228,0.1242,0.1242,0.1243,0.1242,0.1238,0.1263,0.1235,0.1236,0.1236,0.1236,0.1236,0,0.0692,0.0723,0.0752,0.0799,0.0824,0.0853,0.0892,0.0912,0.0939,0.0977,0.1006,0.1045,0.1079,0.1126,0.1163,0.1175,0.1191,0.1183,0.1183,0.1189,0.1223,0.1219,0.1169,0.1169,0.1169,0.1169,0.1169,0.1169,0.0673,0.0696,0.0724,0.0763,0.0794,0.0826,0.0846,0.0875,0.0906,0.0946,0.0975,0.1005,0.1047,0.1087,0.112,0.1133,0.1145,0.1132,0.115,0.118,0.1187,0.1192,0.1189,0.1134,0.1134,0.1114,0.1114,0.1114]},{"header":{"parameterUnit":"m.s-1","parameterCategory":1,"la1":30.2991,"la2":30.254,"lo1":-89.0895,"lo2":-89.0444,"dy":0.0017,"dx":0.0017,"nx":28,"ny":28,"refTime":"2025-06-13T03:00:00:Z","depth":0,"parameterNumber":3,"parameterNumberName":"V-component_of_WINDS"},"data":[0,0,0,0,0,0,0,0,0,0,0,0,0,0,0,0,0,0,0,0,0,0,0,0,0,0,0,0,0,0,0,0,0,0,0,0,0,0,0,0,0,0,0,0,0,0,0,0,0,0,0,0,0,0,0,0,0,0,4.1541,4.1541,0,4.1536,4.1536,4.1536,4.1546,4.1547,4.1547,4.1547,4.1541,4.154,4.154,0,0,0,0,0,0,0,0,0,0,0,0,0,4.1556,4.1556,4.1541,4.1541,4.1541,4.1536,4.1536,4.1536,4.1546,4.1547,4.1547,4.1548,4.1541,4.1541,4.154,0,0,0,0,0,0,0,0,0,0,0,0,0,4.155,4.1556,4.1541,4.1545,4.1546,4.1536,4.1536,4.1536,4.1546,4.1547,4.1547,4.1548,4.1541,4.1541,4.154,4.1526,0,0,4.1538,4.1537,0,0,0,0,0,0,0,0,4.155,4.155,4.1545,4.1545,4.1545,4.1543,4.1539,4.1533,4.1546,4.1546,4.1547,4.1548,4.1541,4.154,4.1538,4.1525,4.1525,4.1538,4.1537,4.1537,4.1537,0,0,0,0,0,0,0,4.1551,4.155,4.1539,4.1545,4.1545,4.1547,4.1547,4.1538,4.1541,4.1546,4.1547,4.1546,4.1541,4.1539,4.1538,4.1525,4.1538,4.1537,4.1537,4.1536,4.15,4.1499,0,0,0,0,0,0,4.1551,4.155,4.1539,4.1539,4.1549,4.1546,4.1546,4.1543,4.1541,4.1541,4.1546,4.1547,4.154,4.1539,4.1538,4.1521,4.1537,4.1536,4.1536,4.15,4.1499,4.1499,0,0,0,0,0,0,4.1551,4.155,4.1539,4.1545,4.1544,4.1545,4.1542,4.1543,4.154,4.1541,4.1541,4.1543,4.154,4.1539,4.1529,4.1521,4.1536,4.1535,4.1501,4.15,4.1499,4.1487,0,0,0,0,0,0,4.1552,4.155,4.1545,4.1545,4.1543,4.1531,4.1541,4.1542,4.1539,4.154,4.1538,4.1538,4.1541,4.153,4.1528,4.152,4.1535,4.1501,4.15,4.1499,4.1488,4.1486,4.1484,0,0,0,0,0,4.1552,4.1542,4.1545,4.1543,4.1537,4.153,4.1529,4.1533,4.1539,4.1533,4.1534,4.1538,4.1522,4.1529,4.1527,4.1519,4.1502,4.1501,4.1499,4.1489,4.1487,4.1484,0,0,0,0,0,0,4.1541,4.1542,4.1545,4.1534,4.1532,4.1532,4.1526,4.153,4.1525,4.1527,4.153,4.153,4.1518,4.1517,4.1525,4.1505,4.1513,4.1511,4.1506,4.1503,4.1501,4.1502,4.1534,0,0,0,0,0,4.1537,4.1532,4.1533,4.1523,4.1522,4.1524,4.1521,4.1523,4.1521,4.152,4.152,4.1517,4.1511,4.1507,4.1502,4.1488,4.1488,4.1482,4.148,4.1478,4.1476,4.1469,4.1466,4.1495,4.1495,4.1495,0,0,4.1529,4.1529,4.1525,4.152,4.1519,4.1513,4.1523,4.1516,4.1512,4.1519,4.1509,4.1509,4.1506,4.1494,4.1488,4.1492,4.1468,4.1476,4.1475,4.1474,4.1467,4.1465,4.1462,4.1494,4.1494,4.1494,0,0,4.1511,4.1511,4.1503,4.1501,4.1499,4.1501,4.1499,4.1498,4.1498,4.1488,4.1494,4.1488,4.1478,4.1475,4.1473,4.1454,4.1458,4.1452,4.1441,4.1434,4.1432,4.143,4.1423,4.142,4.1451,4.1451,4.145,0,4.1501,4.1493,4.1498,4.1491,4.1488,4.1495,4.1486,4.1484,4.1481,4.1478,4.1483,4.1471,4.1469,4.1457,4.1452,4.145,4.1447,4.1452,4.1432,4.143,4.1428,4.1422,4.1419,4.145,4.145,4.145,4.145,0,4.1481,4.1475,4.1469,4.1466,4.1462,4.1454,4.1457,4.1453,4.1456,4.1456,4.1446,4.1445,4.1439,4.1436,4.1439,4.1424,4.1426,4.1431,4.144,4.1425,4.1419,4.1416,4.1449,4.1449,4.1449,4.1449,0,0,4.1457,4.1456,4.1453,4.1452,4.145,4.1445,4.1437,4.1433,4.1429,4.1426,4.1419,4.141,4.1415,4.1412,4.1414,4.1408,4.1393,4.1413,4.1413,4.141,4.1376,4.1372,4.1369,4.1395,4.1395,4.1394,4.1376,0,4.1439,4.1427,4.143,4.1417,4.1412,4.1418,4.1411,4.1409,4.1409,4.1404,4.1404,4.1397,4.1404,4.1402,4.1396,4.1396,4.1386,4.1397,4.1388,4.1388,4.1389,4.1366,4.1362,4.1345,4.1374,4.1373,4.1373,0,4.1418,4.1414,4.1401,4.14,4.1398,4.1392,4.1387,4.1382,4.138,4.138,4.1377,4.138,4.1372,4.138,4.1368,4.1376,4.1372,4.1371,4.1371,4.137,4.138,4.1365,4.134,4.1337,4.1369,4.137,4.137,0,4.1401,4.1393,4.1384,4.1383,4.1381,4.1377,4.1376,4.1374,4.1371,4.1366,4.1364,4.1359,4.1356,4.1351,4.1353,4.1359,4.134,4.1349,4.134,4.134,4.1336,4.1336,4.131,4.1334,4.1334,4.1334,4.1334,0,4.1381,4.1373,4.1377,4.1371,4.1362,4.1365,4.1356,4.1355,4.1353,4.1347,4.1352,4.1346,4.1348,4.1342,4.1343,4.1333,4.1332,4.1332,4.1332,4.1331,4.1331,4.1329,4.1331,4.1333,4.1333,4.1333,4.1333,0,4.1361,4.1364,4.1354,4.1354,4.1353,4.1346,4.1346,4.134,4.1341,4.1333,4.1332,4.1332,4.1325,4.1326,4.1319,4.1319,4.1306,4.1308,4.1308,4.1308,4.1299,4.13,4.1271,4.1267,4.1293,4.1293,4.1292,0,4.1349,4.1343,4.1342,4.1338,4.1337,4.1332,4.1329,4.1332,4.1328,4.1324,4.1319,4.1313,4.1308,4.1297,4.1296,4.129,4.1292,4.1282,4.1291,4.129,4.1292,4.1292,4.1291,4.128,4.128,4.128,4.1279,0,4.1327,4.1328,4.1324,4.132,4.1316,4.1313,4.131,4.1306,4.1309,4.1305,4.1298,4.1294,4.1287,4.128,4.1274,4.1273,4.1276,4.1276,4.1274,4.1274,4.1274,4.1274,4.1303,4.1277,4.1277,4.1278,4.1278,4.1278,4.131,4.1305,4.1303,4.1298,4.1296,4.1294,4.1289,4.1289,4.1283,4.1278,4.128,4.1272,4.1269,4.1262,4.1259,4.1253,4.1257,4.1253,4.1252,4.1252,4.1251,4.1274,4.1252,4.1252,4.1252,4.1252,4.1252,0,4.1288,4.1287,4.1283,4.1279,4.1275,4.1279,4.1276,4.1272,4.1266,4.1263,4.1258,4.125,4.1244,4.1243,4.1236,4.1232,4.1233,4.123,4.123,4.123,4.1248,4.1251,4.1229,4.1229,4.1229,4.1229,4.1229,4.1229,4.1276,4.1268,4.1269,4.1259,4.1258,4.1252,4.1249,4.1247,4.1244,4.1236,4.1231,4.123,4.1228,4.1221,4.1216,4.1215,4.1213,4.1209,4.1209,4.1226,4.1229,4.1231,4.1233,4.1208,4.1208,4.1192,4.1192,4.1192]}]]